GLOBALSTAR M078 [+]

Last updated on July 6, 2021, 3:36 p.m. UTC

1 39076U 13005E   21186.82666180 -.00000176  00000-0 -40206-3 0  9990
2 39076  51.9894  27.5450 0000452 160.5640 199.5244 12.62267431387892
UTC
Height (km)
Latitude
Longitude
Inclination
Orbital Period
UTC large
Height (km)
Speed (km/s)
/
Latitude / Longitude
Inclination (degrees)
Orbital Period (minutes)
Azimuth
Elevation
Range (km)
Doppler Factor
iOS Compass Heading
iOS Angle